AO-07 1 07530U 74089B 18319.57087078 -.00000040 00000-0 27678-4 0 9996 2 07530 101.7110 284.7369 0012452 043.1328 070.9625 12.53635301013329 UO-11 1 14781U 84021B 18319.60796835 .00000083 00000-0 16337-4 0 9997 2 14781 097.6341 349.2379 0007314 312.9661 047.0939 14.83044061845889 LO-19 1 20442U 90005G 18319.39084461 .00000009 00000-0 19318-4 0 9998 2 20442 098.6240 257.0358 0012832 066.2893 293.9636 14.32910005505488 HUBBLE 1 20580U 90037B 18319.96702288 .00000428 00000-0 15198-4 0 9990 2 20580 28.4684 191.6913 0002587 336.5068 145.5238 15.09130820368422 MET-2/21 1 22782U 93055A 18319.57936778 .00000018 00000-0 27106-5 0 9997 2 22782 082.5476 333.7845 0023461 063.7817 048.8827 13.83812852272847 AO-27 1 22825U 93061C 18319.91086661 .00000002 00000-0 18763-4 0 9998 2 22825 98.8815 298.9129 0007357 264.3659 95.6684 14.30044370311253 IO-26 1 22826U 93061D 18319.54276858 .00000009 00000-0 21150-4 0 9998 2 22826 098.8756 298.5560 0007899 253.6180 106.4134 14.30376649311140 FO-29 1 24278U 96046B 18319.52094378 -.00000010 00000-0 23026-4 0 9997 2 24278 98.5139 137.4169 0351377 78.2712 285.7624 13.53087168 98704 NOAA-15 1 25338U 98030A 18319.62304067 .00000022 00000-0 27999-4 0 9995 2 25338 098.7629 336.1094 0011111 143.3824 216.8117 14.25883351066345 GO-32 1 25397U 98043D 18319.41842799 .00000003 00000-0 20531-4 0 9994 2 25397 098.6645 257.4430 0000746 001.7038 358.4143 14.23655040057029 ISS 1 25544U 98067A 18320.11808257 .00001813 00000-0 34833-4 0 9994 2 25544 51.6414 341.6010 0005144 52.8692 19.6792 15.53972853142148 NO-44 1 26931U 01043C 18319.93215574 -.00000031 00000-0 20037-4 0 9998 2 26931 67.0508 197.8541 0006448 258.4464 101.5914 14.30523478894255 SO-50 1 27607U 02058C 18319.49322310 .00000016 00000-0 23058-4 0 9992 2 27607 064.5555 347.5101 0078180 297.4046 061.9118 14.75496933855152 CO-55 1 27844U 03031E 18319.92892582 .00000054 00000-0 44000-4 0 9990 2 27844 98.6870 326.3478 0008837 295.3117 64.7145 14.22144168797768 CO-57 1 27848U 03031J 18319.50842537 .00000040 00000-0 38268-4 0 9997 2 27848 98.6953 326.3793 0008847 308.7421 51.2965 14.21744307797561 RS-22 1 27939U 03042A 18319.88707354 .00000064 00000-0 20095-4 0 9993 2 27939 98.0114 95.3085 0013503 33.9791 326.2280 14.66731878809055 NOAA-18 1 28654U 05018A 18319.56526759 -.00000020 00000-0 14038-4 0 9999 2 28654 99.1283 357.9723 0015102 64.8030 295.4705 14.12389928695150 CO-58 1 28895U 05043F 18319.36684626 .00000166 00000-0 40774-4 0 9996 2 28895 97.9296 104.8967 0015813 314.8769 45.1149 14.63601887695982 Falconsat-3 1 30776U 07006E 18319.50324070 .00002023 00000-0 59295-4 0 9990 2 30776 035.4367 022.9974 0003344 309.1374 050.9055 15.35207251647582 CO-65 1 32785U 08021C 18319.53581509 .00000225 00000-0 29947-4 0 9998 2 32785 097.5469 324.4879 0011613 254.8864 105.1069 14.88205809571610 AAUSAT2 1 32788U 08021F 18319.94593590 .00000848 00000-0 83475-4 0 9996 2 32788 97.5115 340.0565 0011510 192.7434 167.3498 14.94512881572846 DO-64 1 32789U 08021G 18319.44243081 .00001277 00000-0 90516-4 0 9990 2 32789 097.4944 010.3059 0013477 137.1997 223.0282 15.06449409574451 CO-66 1 32791U 08021J 18319.51025563 .00000435 00000-0 49657-4 0 9999 2 32791 97.5320 330.1344 0012210 230.6585 129.3553 14.90671542572059 RS-30 1 32953U 08025A 18319.91304765 .00000020 00000-0 75656-4 0 9999 2 32953 82.5013 278.3096 0017914 237.7853 122.1493 12.43086493475621 PRISM 1 33493U 09002B 18319.90054633 .00000917 00000-0 86350-4 0 9998 2 33493 98.1200 227.7257 0015019 170.7391 189.4113 14.96406034533038 NOAA-19 1 33591U 09005A 18319.60768277 .00000059 00000-0 57152-4 0 9998 2 33591 099.1600 300.7686 0012996 261.7473 098.2224 14.12318016503287 TISAT-1 1 36799U 10035E 18319.52991228 .00000459 00000-0 52590-4 0 9996 2 36799 98.1276 99.9726 0013557 74.1422 286.1288 14.90933433452704 JUGNU 1 37839U 11058B 18319.93956772 .00000304 00000-0 20171-4 0 9997 2 37839 19.9600 197.0431 0019030 119.7987 348.7572 14.12634405366851 SRMSAT 1 37841U 11058D 18319.95305810 .00000306 00000-0 23019-4 0 9999 2 37841 19.9718 249.2984 0011743 358.5527 56.6794 14.10619100366330 AO-71 1 37854U 11061E 18319.32568580 .00000979 00000-0 58476-4 0 9994 2 37854 101.7100 101.7486 0162286 345.1382 014.5090 15.05878655384124 HRBE 1 37855U 11061F 18319.95292488 .00000742 00000-0 45654-4 0 9997 2 37855 101.7220 100.1696 0175177 352.9472 6.9278 15.04872418384474 ALMASAT-1 1 38078U 12006B 18319.97829502 .00021419 40244-5 16096-3 0 9990 2 38078 69.4304 154.1291 0213801 235.1330 238.8156 15.48796514364094 HORYU-2 1 38340U 12025D 18319.96865780 .00000204 00000-0 37900-4 0 9998 2 38340 98.3549 346.8157 0012785 88.7712 271.4961 14.75627718349495 RS-40 1 38735U 12041C 18320.13034529 .00000022 00000-0 91156-4 0 9995 2 38735 82.4797 1.8834 0016383 347.3557 12.7105 12.42577568285901 BEESAT-3 1 39135U 13015F 18319.53374822 .00000927 00000-0 56516-4 0 9992 2 39135 064.8707 012.5361 0009466 256.4027 103.6045 15.17013997307219 BEESAT-2 1 39136U 13015G 18319.55745697 .00000986 00000-0 60356-4 0 9999 2 39136 64.8705 15.6616 0011070 246.6034 113.3928 15.16462610307541 ZACUBE-1 1 39417U 13066B 18319.59201973 .00000250 00000-0 37860-4 0 9993 2 39417 097.5762 340.0575 0059479 020.5605 339.7982 14.81010485269200 TRITON-1 1 39427U 13066M 18319.92150474 .00000191 00000-0 38220-4 0 9995 2 39427 97.6544 305.9015 0114988 132.7843 228.3104 14.67740987266832 GOMX-1 1 39430U 13066Q 18319.85588469 .00000139 00000-0 34358-4 0 9990 2 39430 97.7154 285.9564 0150372 211.4821 147.7352 14.59154221265275 LO-74 1 39440U 13066AA 18319.55009289 .00000256 00000-0 42425-4 0 9990 2 39440 097.5997 325.7802 0081715 064.4080 296.5547 14.75750055267045 AO-73 1 39444U 13066AE 18319.57473450 .00000308 00000-0 44312-4 0 9996 2 39444 097.5763 341.7538 0058467 015.4361 344.8619 14.81809518267481 SPROUT 1 39770U 14029E 18319.86807303 .00000911 00000-0 10760-3 0 9997 2 39770 97.8820 59.7179 0010185 72.7562 287.4768 14.87059505242907 DUCHIFAT-1 1 40021U 14033M 18319.32146329 .00000561 00000-0 63313-4 0 9992 2 40021 097.9162 238.3028 0014057 044.4009 315.8333 14.90443343239462 NANOSATCBR1 1 40024U 14033Q 18319.77405141 .00000408 00000-0 48500-4 0 9995 2 40024 97.9082 236.6849 0013378 45.8944 314.3371 14.89686989239443 EO-79 1 40025U 14033R 18319.77555653 .00000336 00000-0 41819-4 0 9996 2 40025 97.9027 234.8271 0013652 50.4600 309.7820 14.88813261239348 DTUSAT-2 1 40030U 14033W 18319.31022873 .00000314 00000-0 39879-4 0 9994 2 40030 97.8962 232.8548 0013050 47.6621 312.5699 14.88413932239212 EO-80 1 40032U 14033Y 18319.77778994 .00000331 00000-0 41752-4 0 9990 2 40032 97.8970 233.3224 0012967 46.8429 313.3869 14.88353851239270 ANTELSAT 1 40034U 14033AA 18319.58920545 .00000257 00000-0 45474-4 0 9994 2 40034 97.7873 190.5032 0060155 70.5539 290.2156 14.73999795236997 VELOX-1 1 40057U 14034E 18319.87443653 .00000329 00000-0 53733-4 0 9999 2 40057 98.2171 73.6640 0010615 195.2591 164.8295 14.77529419236046 DAURIA DX 1 1 40071U 14037C 18319.87561326 .00000125 00000-0 23486-4 0 9992 2 40071 98.3976 98.2082 0008162 185.1532 174.9596 14.81208303235457 UKUBE-1 1 40074U 14037F 18319.87519269 .00000332 00000-0 47126-4 0 9991 2 40074 98.4075 105.0094 0004218 175.9425 184.1836 14.83913089235790 HODOYOSHI-1 1 40299U 14070B 18319.90663198 .00000615 00000-0 28965-4 0 9996 2 40299 97.3684 38.9370 0014797 79.1702 50.1164 15.23104470223570 CHUBUSAT-1 1 40300U 14070C 18319.80067192 .00000841 00000-0 39885-4 0 9994 2 40300 97.3507 34.1751 0021823 90.4517 25.2135 15.21795763223330 QSAT-EOS 1 40301U 14070D 18319.95823590 .00001623 00000-0 66742-4 0 9994 2 40301 97.3488 36.2761 0027977 78.8932 7.8016 15.25250627223557 FIREBIRD FU3 1 40377U 15003B 18319.44643722 .00002079 00000-0 86720-4 0 9999 2 40377 099.0859 251.1886 0130742 087.3093 274.3093 15.17817428209251 FIREBIRD FU4 1 40378U 15003C 18319.76408720 .00002126 00000-0 88453-4 0 9990 2 40378 99.0862 251.6347 0130951 86.1444 275.4745 15.17826502209318 GRIFEX 1 40379U 15003D 18319.76577975 .00001436 00000-0 65612-4 0 9995 2 40379 99.0859 246.9870 0138238 100.9979 260.6833 15.14776273209047 NO-84 1 40654U 15025D 18319.48796754 .00011824 00000-0 17727-3 0 04587 2 40654 054.9901 071.5610 0152099 134.2741 227.0711 15.43283537079183 NO-83 1 40655U 15025E 18319.37602327 .00026336 00000-0 22416-3 0 05405 2 40655 054.9733 355.7292 0088827 177.8967 182.2231 15.64355062079882 DEORBITSAIL 1 40719U 15032E 18319.57981555 .00000430 00000-0 68841-4 0 9997 2 40719 097.9274 210.4892 0015212 282.0276 077.9229 14.76564930180511 NUDT-PHONESAT 1 40900U 15049B 18319.96195412 .00002092 00000-0 94763-4 0 9997 2 40900 97.4409 326.5243 0012022 212.5293 206.1391 15.21930757174996 XW-2A 1 40903U 15049E 18319.95986324 .00001853 00000-0 46823-4 0 9997 2 40903 97.3682 356.2362 0013292 194.2076 207.5608 15.41064190177178 XW-2C 1 40906U 15049H 18319.94681519 .00000649 00000-0 37838-4 0 9995 2 40906 97.4644 320.7091 0013533 220.1974 196.4124 15.15395476174473 XW-2D 1 40907U 15049J 18319.94935552 .00000660 00000-0 38231-4 0 9996 2 40907 97.4615 320.3938 0012951 217.4347 198.7422 15.15561563174483 LILACSAT-2 1 40908U 15049K 18319.94601987 .00000395 00000-0 25589-4 0 9996 2 40908 97.4737 319.5491 0014490 221.7924 195.4493 15.13634468174320 XW-2E 1 40909U 15049L 18319.94353212 .00001163 00000-0 61598-4 0 9996 2 40909 97.4583 322.7074 0012551 214.0366 204.5745 15.17339321174623 XW-2F 1 40910U 15049M 18319.97229227 .00000912 00000-0 49698-4 0 9997 2 40910 97.4608 322.0091 0013706 210.9938 208.6913 15.16854663174462 XW-2B 1 40911U 15049N 18319.84600499 .00000584 00000-0 34284-4 0 9998 2 40911 97.4650 320.8836 0012930 218.0159 227.2808 15.15499751174366 DCBB 1 40912U 15049P 18319.99494229 .00001338 00000-0 66876-4 0 9997 2 40912 97.4521 325.2201 0014142 196.7515 215.5722 15.19113908174719 TW-1C 1 40926U 15051B 18319.83073622 .00008841 00000-0 15046-3 0 9996 2 40926 97.1689 1.5637 0011358 85.6425 1.6435 15.51568466176801 TW-1A 1 40928U 15051D 18319.87134259 .00003105 00000-0 80972-4 0 9995 2 40928 97.1713 350.8084 0012929 125.9317 231.8165 15.39506968176105 IO-86 1 40931U 15052B 18319.01998250 .00000828 00000-0 26223-4 0 9993 2 40931 6.0027 154.5556 0013661 342.5077 17.4906 14.76591853169338 LQSat 1 40958U 15057A 18319.84787680 .00000039 00000-0 13732-4 0 9996 2 40958 97.9263 29.5359 0017440 206.8816 153.1482 14.73056299167176 AO-85 1 40967U 15058D 18319.38471051 .00000168 00000-0 35072-4 0 05088 2 40967 064.7768 092.1965 0213922 268.1901 089.4681 14.75816743075963 ATHENOXAT-1 1 41168U 15077C 18319.40121434 .00002126 00000-0 78826-4 0 9997 2 41168 14.9891 353.2672 0011703 343.7210 125.7403 15.13139427161314 ChubuSat-2 1 41338U 16012B 18319.56781611 .00000366 00000-0 21868-4 0 9990 2 41338 031.0036 071.8030 0013679 132.6181 227.5610 15.00055423150588 ChubuSat-3 1 41339U 16012C 18319.56293438 .00000345 00000-0 20109-4 0 9990 2 41339 31.0110 70.2163 0013211 138.9435 221.2194 15.00237222150571 Horyu-4 1 41340U 16012D 18319.53674684 .00000537 00000-0 34198-4 0 9991 2 41340 31.0056 63.7817 0013867 154.7085 205.4231 15.01106437150658 OUFTI-1 1 41458U 16025C 18319.83699654 .00000647 00000-0 37691-4 0 9995 2 41458 98.1209 30.7003 0168490 359.5442 0.5558 15.05142478140258 e-st@r-II 1 41459U 16025D 18319.73978533 .00001490 00000-0 81313-4 0 9998 2 41459 98.1213 30.3750 0168698 0.7207 359.4214 15.04840667140218 AAUSAT4 1 41460U 16025E 18319.76447045 .00000895 00000-0 49927-4 0 9995 2 41460 98.1164 31.1660 0159989 355.4585 4.5171 15.06449721140304 LO-87 1 41557U 16033B 18319.96613007 .00001133 00000-0 45376-4 0 9996 2 41557 97.4309 43.6746 0012338 341.3773 18.7012 15.27094662137328 NuSat2 1 41558U 16033C 18319.93732927 .00001227 00000-0 46824-4 0 9990 2 41558 97.4330 44.0150 0012578 346.5958 13.4945 15.28538549137320 Lapan A3 1 41603U 16040E 18319.86233709 .00000035 00000-0 48055-5 0 9990 2 41603 97.3934 18.4709 0015208 72.5692 47.8241 15.19631950133112 Swayam 1 41607U 16040J 18319.88234472 .00001501 00000-0 67285-4 0 9998 2 41607 97.3959 20.6477 0015183 69.2925 290.9937 15.22680311133183 Pratham 1 41783U 16059A 18319.90856287 .00000050 00000-0 19050-4 0 9995 2 41783 98.0996 18.8689 0033066 341.2947 18.7037 14.62955410114148 AlSat 1N 1 41789U 16059G 18319.80628353 .00000094 00000-0 26980-4 0 9999 2 41789 98.1014 20.3062 0027782 333.1187 26.8565 14.64194694114207 ScatSat 1 41790U 16059H 18319.62151039 .00000010 00000-0 13695-4 0 9990 2 41790 098.2413 004.5141 0018059 351.0099 009.0770 14.50880229113147 TY-1 1 41844U 16066D 18319.86504543 .00001638 00000-0 71076-4 0 9990 2 41844 97.4069 324.8670 0013844 219.9857 235.9932 15.23701969111974 Pegasus-1 1 41846U 16066F 18319.66113801 .00000276 00000-0 51864-4 0 9993 2 41846 98.7403 351.1322 0368527 157.1516 204.6553 14.37438752105667 CAS-2T 1 41847U 16066G 18319.94675055 .00000023 00000-0 13630-4 0 9998 2 41847 98.7356 351.9208 0366690 153.4088 208.6436 14.37936056106135 TO-89 1 41932U 98067KU 18319.25333586 .00100679 15122-4 27289-3 0 9995 2 41932 51.6259 274.6887 0006124 91.9817 268.1891 15.94123404104697 EO-88 1 42017U 17008BX 18319.83370458 .00001608 00000-0 67540-4 0 9991 2 42017 97.4317 23.8865 0005876 192.0171 168.0927 15.24897129 97171 HAVELSAT 1 42700U 98067LH 18319.93824458 .00061789 00000-0 27906-3 0 9996 2 42700 51.6273 292.9686 0005580 94.7233 265.4408 15.83375344 85956 SOMP2 1 42701U 98067LJ 18319.93979175 .00047027 00000-0 23814-3 0 9997 2 42701 51.6335 296.0579 0005388 85.9931 274.1687 15.81032734 85907 PHOENIX 1 42706U 98067LP 18319.80191226 .00032357 00000-0 19905-3 0 9997 2 42706 51.6289 299.6649 0003154 57.9262 302.2044 15.76902226 85762 X-CubeSat 1 42707U 98067LQ 18319.93453784 .00076411 00000-0 30532-3 0 9990 2 42707 51.6279 291.3416 0004911 75.8319 284.3230 15.85861688 85872 qbee 1 42708U 98067LR 18319.89587915 .00061147 00000-0 28119-3 0 9998 2 42708 51.6286 294.2061 0004056 78.4739 281.6719 15.83006001 85795 ZA-AeroSat 1 42713U 98067LU 18319.97018452 .00029392 00000-0 19384-3 0 9998 2 42713 51.6340 303.0458 0003859 55.7744 304.3620 15.75361614 85390 UPSat 1 42716U 98067LX 18316.95463152 .25568573 12659-4 27921-3 0 9996 2 42716 51.6101 291.3881 0002187 209.9477 150.8621 16.50348000 85401 SpaceCube 1 42717U 98067LY 18319.36766804 .00051282 00000-0 23928-3 0 9998 2 42717 51.6240 297.3464 0004989 89.2392 270.9182 15.82762301 84780 Hoopoe 1 42718U 98067LZ 18319.91882386 .00151967 20049-4 40675-3 0 9992 2 42718 51.6237 285.9157 0006237 95.4364 264.7355 15.94143587 84982 NJUST-1 1 42722U 98067MB 18319.84350306 .00029037 00000-0 20663-3 0 9999 2 42722 51.6361 306.5981 0006564 80.4251 348.5849 15.73584663 84409 UNSW-EC0 1 42723U 98067MC 18319.89587096 .00317779 54959-4 53801-3 0 9992 2 42723 51.6353 283.6340 0007392 102.0540 258.1299 16.02091433 84694 LO-90 1 42725U 98067ME 18319.96361340 .00052406 00000-0 28360-3 0 9993 2 42725 51.6370 299.1758 0006085 77.4095 315.4873 15.79525750 84421 nSIGHT1 1 42726U 98067MF 18319.98460699 .00010631 00000-0 11310-3 0 9994 2 42726 51.6387 320.6142 0005886 78.4479 281.7177 15.64624196 84141 SNUSAT 1B 1 42727U 98067MG 18319.97555083 .00042755 00000-0 23447-3 0 9992 2 42727 51.6321 299.2383 0007015 64.4962 295.6764 15.79313348 84388 QBITO 1 42728U 98067MH 18319.90660217 .00073339 00000-0 32024-3 0 9995 2 42728 51.6326 294.3890 0005068 84.7727 275.3855 15.84025161 84287 Aalto-2 1 42729U 98067MJ 18319.19967927 .00086404 00000-0 35651-3 0 9991 2 42729 51.6273 297.0201 0004968 80.6392 279.5173 15.85148559 84193 SUSat 1 42730U 98067MK 18319.94040890 .00046004 00000-0 23924-3 0 9999 2 42730 51.6336 297.5522 0004659 81.3335 278.8195 15.80466980 84246 i-INSPIRE II 1 42731U 98067ML 18319.14005610 .00591947 18841-3 67704-3 0 9993 2 42731 51.6272 285.1618 0006500 103.0418 257.1322 16.08420155 84388 PolyITAN-2-SAU 1 42732U 98067MM 18319.96875623 .00075945 00000-0 30941-3 0 9996 2 42732 51.6295 292.3925 0006724 64.9179 295.2522 15.85446505 84366 ExAlta-1 1 42734U 98067MP 18318.24538221 .12474274 12505-4 35882-3 0 9995 2 42734 51.6055 286.4142 0002642 166.4742 193.6358 16.45390460 84235 Aoxiang-1 1 42735U 98067MQ 18319.82939509 .00030510 00000-0 21055-3 0 9993 2 42735 51.6355 305.7052 0007043 76.8688 355.7450 15.74269006 85548 BeEagleSat 1 42736U 98067MR 18319.91783338 .00036437 00000-0 21647-3 0 9992 2 42736 51.6323 301.1554 0006787 78.6250 281.5512 15.77606117 84309 CAS-4B 1 42759U 17034B 18319.87536152 .00000322 00000-0 33334-4 0 9998 2 42759 43.0199 330.4569 0011007 333.4057 89.8154 15.09421454 78374 CAS-4A 1 42761U 17034D 18319.91717375 .00000240 00000-0 28244-4 0 9997 2 42761 43.0208 329.8961 0011600 335.6662 96.2040 15.09497411 78373 UCLSat 1 42765U 17036A 18319.35426561 .00001289 00000-0 59086-4 0 9997 2 42765 97.3828 16.6427 0010032 265.7222 94.2868 15.22218904 77703 NIUSat 1 42766U 17036B 18319.16366453 .00001066 00000-0 51540-4 0 9990 2 42766 97.3829 15.3942 0014311 253.9856 105.9803 15.20692079 77479 LituanicaSAT 2 1 42768U 17036D 18319.44843514 .00001869 00000-0 84832-4 0 9992 2 42768 97.3852 16.2896 0013923 253.9698 106.0005 15.21960963 77564 Aalto 1 1 42775U 17036L 18319.88558970 .00000724 00000-0 35705-4 0 9991 2 42775 97.3819 16.3726 0012591 251.1913 108.7957 15.20992657 77556 URSA MAIOR 1 42776U 17036M 18319.33691291 .00000883 00000-0 42757-4 0 9997 2 42776 97.3826 15.9204 0012381 253.4294 106.5582 15.21095987 77477 Max Valier Sat 1 42778U 17036P 18319.90879478 .00000968 00000-0 45887-4 0 9998 2 42778 97.3856 16.9726 0010953 255.7973 104.2046 15.21610501 77570 Pegasus 1 42784U 17036V 18319.60862156 .00001177 00000-0 54543-4 0 9999 2 42784 097.3831 016.7790 0010568 264.8041 095.1989 15.22009155077547 NUDATSat 1 42787U 17036Y 18319.92236196 .00001597 00000-0 71370-4 0 9999 2 42787 97.3863 17.4568 0010363 271.7044 88.3014 15.22737712 77459 SUCHAI 1 1 42788U 17036Z 18319.40490565 .00001371 00000-0 62436-4 0 9998 2 42788 97.3834 16.7484 0010175 265.1991 94.8083 15.22336994 77596 SKCUBE 1 42789U 17036AA 18319.34356376 .00001271 00000-0 58211-4 0 9998 2 42789 097.3831 016.6666 0010022 265.4425 094.5666 15.22272750077505 VZLUSAT 1 1 42790U 17036AB 18319.45008939 .00001708 00000-0 76100-4 0 9993 2 42790 097.3840 016.9958 0009664 264.6565 095.3569 15.22751347077538 VENTA 1 1 42791U 17036AC 18319.45249687 .00001176 00000-0 54022-4 0 9999 2 42791 097.3830 016.8209 0009673 265.7503 094.2628 15.22303097077517 Robusta 1B 1 42792U 17036AD 18319.16576184 .00001402 00000-0 63598-4 0 9993 2 42792 097.3831 016.5870 0009607 267.1867 092.8270 15.22431652077499 D-SAT 1 42794U 17036AF 18319.58822553 .00000178 00000-0 20810-4 0 9994 2 42794 097.5723 008.3704 0127965 137.8197 223.2955 14.90967416076287 BIRD-J 1 42820U 98067MU 18319.96050627 .00035554 00000-0 22359-3 0 9999 2 42820 51.6339 304.4665 0004341 50.4253 309.7130 15.76346504 77721 BIRD-G 1 42821U 98067MV 18319.38960605 .00028815 00000-0 19225-3 0 9992 2 42821 51.6311 308.9152 0004231 42.0421 318.0903 15.75103928 77590 BIRD-M 1 42822U 98067MW 18319.96826616 .00033444 00000-0 21597-3 0 9999 2 42822 51.6342 305.2821 0004460 51.2165 308.9233 15.75771289 77695 BIRD-B 1 42823U 98067MX 18319.18737022 .00038917 00000-0 24815-3 0 9992 2 42823 51.6318 309.0927 0006149 50.2066 309.9474 15.75973454 77576 BIRD-N 1 42824U 98067MY 18320.00123724 .00032146 00000-0 20937-3 0 9993 2 42824 51.6345 305.5545 0006095 56.6642 303.4941 15.75585686 77680 TechnoSat 1 42829U 17042E 18319.84755372 .00000195 00000-0 25215-4 0 9996 2 42829 97.5822 216.3571 0015613 58.2282 302.0455 14.90887247 72927 TOMSK-TPU 120 1 42910U 98067MZ 18319.82756789 .00021242 00000-0 17957-3 0 9993 2 42910 51.6370 315.4939 0006731 63.0742 359.3443 15.69675638 71154 TANYUSHA 1 1 42911U 98067NA 18319.86141916 .00028532 00000-0 21843-3 0 9996 2 42911 51.6363 312.7373 0006887 59.8909 9.3217 15.71867355 71174 TANYUSHA 2 1 42912U 98067NB 18319.87436738 .00025321 00000-0 20342-3 0 9993 2 42912 51.6405 314.3426 0006126 66.6884 4.0704 15.70793910 71170 SFERA 2 1 42913U 98067NC 18319.98812752 .00385969 77575-4 60848-3 0 9997 2 42913 51.6308 289.3703 0008059 91.1692 269.0236 16.03252206 71481 TNS 0-2 1 42914U 98067ND 18320.00714497 .00019882 00000-0 16946-3 0 9993 2 42914 51.6350 315.3928 0005805 63.2691 296.8899 15.69531953 71161 QIKCOM-1 1 42983U 98067NF 18319.89857167 .00002932 00000-0 46122-4 0 9994 2 42983 51.6407 337.3059 0004734 47.9704 312.1691 15.57285929 59853 AO-91 1 43017U 17073E 18319.50657027 .00000445 00000-0 39939-4 0 9997 2 43017 97.7141 244.3843 0260066 138.7756 223.3420 14.78269068 53466 EcAMSat 1 43019U 98067NG 18319.93270845 .00004957 00000-0 69690-4 0 9996 2 43019 51.6411 335.2999 0005324 25.9082 334.2176 15.58673405142206 PICSAT 1 43132U 18004X 18319.96406601 .00001330 00000-0 59551-4 0 9996 2 43132 97.5170 22.9358 0008323 290.6555 69.3788 15.23025910 46819 AO-92 1 43137U 18004AC 18319.88295551 .00001030 00000-0 46824-4 0 9998 2 43137 97.5165 22.8765 0007912 293.4567 66.5837 15.23024642 46798 TianYi 2 1 43155U 18008A 18319.97997101 .00000378 00000-0 26579-4 0 9991 2 43155 97.5114 31.7885 0017362 349.0197 115.9417 15.10797215 45400 Zhou Enlai 1 43156U 18008B 18319.89024378 .00001200 00000-0 77028-4 0 9990 2 43156 97.5165 31.6338 0014544 346.6112 125.9657 15.10281878 45374 TianYi 6 1 43158U 18008D 18319.94414234 .00001152 00000-0 74807-4 0 9990 2 43158 97.5117 31.4006 0013452 343.2118 104.0189 15.09953839 45356 S-Net G 1 43186U 18014G 18319.73703681 .00000114 00000-0 15153-4 0 9998 2 43186 97.7160 226.1801 0011326 11.7367 348.4117 14.96531660 42984 S-Net H 1 43187U 18014H 18319.73686951 .00000101 00000-0 13982-4 0 9993 2 43187 97.7158 226.1736 0011321 11.6306 348.5174 14.96532442 42989 S-Net J 1 43188U 18014J 18319.73671888 .00000101 00000-0 13988-4 0 9993 2 43188 97.7161 226.1830 0011325 11.7069 348.4414 14.96533205 42984 S-Net K 1 43189U 18014K 18319.73693765 .00000104 00000-0 14277-4 0 9997 2 43189 97.7158 226.1722 0011313 11.6677 348.4804 14.96531924 41531 FMN 1 1 43192U 18015A 18319.60367256 .00002202 00000-0 95256-4 0 9998 2 43192 097.3755 085.6142 0016018 336.2130 023.8366 15.23399345043567 Shaonian Xing 1 43199U 18015H 18319.57128013 .00001554 00000-0 66618-4 0 9996 2 43199 097.3536 085.1234 0017105 348.6067 011.4775 15.24128776043591 1KUNS-PF 1 43466U 98067NP 18319.43050187 .00009815 00000-0 12911-3 0 9993 2 43466 51.6403 340.9299 0001333 30.5430 329.5640 15.59174541 29265 UBAKUSAT 1 43467U 98067NQ 18319.47785317 .00007810 00000-0 10806-3 0 9992 2 43467 51.6395 341.2476 0002929 354.3048 5.7911 15.58159356 29272 Irazu 1 43468U 98067NR 18319.45118401 .00011761 00000-0 14894-3 0 9996 2 43468 051.6401 340.3181 0001356 031.9710 328.1365 15.59961486129262 EnduroSat One 1 43551U 98067NZ 18319.43162954 .00008533 00000-0 12147-3 0 9991 2 43551 051.6397 343.1753 0007223 056.8762 303.2922 15.57233705019475 EQUISat 1 43552U 98067PA 18319.44172860 .00007147 00000-0 10402-3 0 9992 2 43552 051.6401 343.2451 0007394 057.6772 302.4935 15.56924747019430 UiTMSat 1 1 43589U 98067PD 18319.35832739 .00007973 00000-0 11681-3 0 9997 2 43589 051.6399 344.1837 0006755 064.7233 295.4458 15.56556327015156 Maya 1 1 43590U 98067PE 18319.48500181 .00008135 00000-0 11891-3 0 9990 2 43590 051.6398 343.5303 0006861 065.8817 294.2892 15.56585054015109 Bhutan 1 1 43591U 98067PF 18319.48256587 .00008206 00000-0 11971-3 0 9997 2 43591 051.6399 343.5142 0006962 067.2427 292.9300 15.56627430015101 SiriusSat 1 1 43595U 98067PG 18319.44689540 .00007590 00000-0 11323-3 0 9992 2 43595 51.6399 344.0217 0004423 25.5577 334.5632 15.56146647 14271 SiriusSat 2 1 43596U 98067PH 18319.45532891 .00007436 00000-0 11171-3 0 9990 2 43596 051.6407 344.0871 0005096 027.6877 332.4385 15.55991227014274 Tanusha-3 1 43597U 98067PJ 18319.44589076 .00008551 00000-0 12574-3 0 9994 2 43597 051.6387 344.0062 0004702 038.4487 321.6839 15.56350265014270 SurfSat 1 43614U 18070B 18319.55152841 .00002951 00000-0 82643-4 0 9991 2 43614 093.0322 274.7214 0019610 057.9789 302.3359 15.36501273009364 CP-7 DAVE 1 43615U 18070C 18319.55128158 .00002759 00000-0 77272-4 0 9994 2 43615 093.0318 274.7223 0019662 057.6777 302.6368 15.36499617009362 ELFIN-B 1 43616U 18070D 18319.35244826 -.00000006 00000-0 00000 0 0 9998 2 43616 93.0299 274.6093 0020994 61.7267 298.6569 15.36628252 9338 ELFIN-A 1 43617U 18070E 18319.35123286 -.00000006 00000-0 00000 0 0 9995 2 43617 93.0357 274.6602 0020151 58.4400 301.9286 15.36663560 9332 STARS-Me Mother 1 43640U 98067PQ 18319.37383166 .00005563 00000-0 88125-4 0 9993 2 43640 051.6405 345.0376 0006318 016.7346 343.3853 15.55093769006187 CubeBel 1 1 43666U 18083E 18319.83207795 .00001018 00000-0 54711-4 0 9990 2 43666 97.5386 340.6175 0014128 209.9716 237.2311 15.17124648 2708 Changshagaoxin 1 43669U 18083H 18319.84386133 .00001030 00000-0 56450-4 0 9994 2 43669 97.5240 340.5809 0010289 197.9779 267.9306 15.16411278 2668 Ten-Koh 1 43677U 18084G 18319.81119517 .00000752 00000-0 83572-4 0 9996 2 43677 97.8367 70.2018 0014499 272.2080 87.7477 14.90097621 2613 Diwata-2 1 43678U 18084H 18319.92871633 -.00000266 00000-0 -20887-4 0 9995 2 43678 97.8362 70.3672 0008752 299.6392 60.3956 14.91503031 2639 IRVINE 01 1 43693U 18088D 18319.59791721 .00002630 00000-0 11845-3 0 9996 2 43693 085.0350 100.0502 0016835 262.5001 097.4331 15.20434374000678 /EX
